Regional Weather Roundup
Issued by NWS Goodland, KS

Home | Current Version | Previous Version | Graphics & Text | Print | Product List | Glossary On
Versions: 1 2 3 4 5 6 7 8 9 10 11 12 13 14 15 16 17 18 19 20 21 22 23 24 25 26 27 28 29 30 31 32 33 34 35 36 37 38 39 40 41 42 43 44 45 46 47 48 49 50
000
ASUS43 KGLD 260008
RWRGLD

GOODLAND FORECAST AREA HOURLY WEATHER ROUNDUP
NATIONAL WEATHER SERVICE GOODLAND KS
500 PM MST SAT FEB 25 2017

...OFFICIAL OBSERVATIONS...

CITY           SKY/WX    TMP DP  RH WIND       PRES   REMARKS
GOODLAND KS    CLEAR     36   3  25 E9        29.85F
HILL CITY KS   PTCLDY    44   8  23 NW12G21   29.91S
IMPERIAL NEB   CLEAR     32  15  49 NW7       29.87F
MCCOOK NEB     CLEAR     36  10  34 NW14      29.91S
AKRON CO       MOCLDY    30  18  60 E6        29.80F
BURLINGTON CO  CLEAR     36   7  29 E13       29.82F
LIMON CO       CLOUDY    35  -5  18 SE8       29.76F
$$

...UNOFFICIAL OBSERVATIONS...

CITY           SKY/WX    TMP DP  RH WIND       PRES   REMARKS
LENORA KS        N/A     40  32  73 N12         N/A
SHARON SPRINGS   N/A     39   7  27 NE14        N/A
TRENTON NEB      N/A     34  32  92 N7          N/A
KIT CARSON CO    N/A     38   2  22 CALM        N/A
YUMA CO        MOCLDY    28  21  74 E5        29.83F
$$




USA.gov is the U.S. government's official web portal to all federal, state and local government web resources and services.